This demonstration page uses our WeatherBlox Daily Observations layout. Learn more.

Left ArrowRight Arrow

Hourly Observations for January 31, 2021

Temp ( °F °C ) Dew Point ( °F °C ) Humidity (%) Winds ( mph kmh ) Pressure ( in mb ) Visibility ( mi km ) Precip ( " mm )
12:53 am 00:53 Clear 20 -6.7 13 -10.6 74 74 WSW 9 15 30.23 1024 10 16 0.00 0.00
1:53 am 01:53 Clear 19 -7.2 12 -11.1 74 74 WSW 6 9 30.23 1024 10 16 0.00 0.00
2:53 am 02:53 Clear 21 -6.1 13 -10.6 71 71 WSW 8 13 30.24 1024 10 16 0.00 0.00
3:53 am 03:53 Clear 17 -8.3 11 -11.7 77 77 W 6 9 30.26 1025 10 16 0.00 0.00
4:53 am 04:53 Clear 17 -8.3 11 -11.7 77 77 W 7 11 30.26 1025 10 16 0.00 0.00
5:53 am 05:53 Clear 18 -7.8 13 -10.6 81 81 W 5 7 30.27 1025 10 16 0.00 0.00
6:53 am 06:53 Clear 20 -6.7 14 -10 78 78 WSW 3 6 30.27 1025 10 16 0.00 0.00
7:53 am 07:53 Sunny 17 -8.3 12 -11.1 80 80 WNW 3 6 30.29 1026 10 16 0.00 0.00
8:53 am 08:53 Sunny 21 -6.1 15 -9.4 78 78 NW 5 7 30.29 1026 10 16 0.00 0.00
9:53 am 09:53 Sunny 29 -1.7 21 -6.1 72 72 WSW 6 9 30.27 1025 10 16 0.00 0.00
10:53 am 10:53 Sunny 34 1.1 23 -5 64 64 SW 7 11 30.27 1025 10 16 0.00 0.00
11:53 am 11:53 Sunny 43 6.1 21 -6.1 42 42 SW 17 28 30.24 1024 10 16 0.00 0.00
12:53 pm 12:53 Sunny 45 7.2 19 -7.2 35 35 SW 17 28 30.21 1023 10 16 0.00 0.00
1:53 pm 13:53 Sunny 48 8.9 19 -7.2 32 32 SW 22 35 30.18 1022 10 16 0.00 0.00
2:53 pm 14:53 Sunny 48 8.9 19 -7.2 32 32 SW 18 30 30.17 1022 10 16 0.00 0.00
3:53 pm 15:53 Sunny 48 8.9 19 -7.2 32 32 SW 9 15 30.18 1022 10 16 0.00 0.00
4:53 pm 16:53 Sunny 46 7.8 18 -7.8 32 32 SW 16 26 30.16 1022 10 16 0.00 0.00
5:53 pm 17:53 Clear 37 2.8 16 -8.9 42 42 SSW 15 24 30.18 1022 10 16 0.00 0.00
6:53 pm 18:53 Clear 34 1.1 16 -8.9 48 48 WSW 6 9 30.18 1022 10 16 0.00 0.00
7:53 pm 19:53 Clear 32 0 15 -9.4 50 50 SW 15 24 30.18 1022 10 16 0.00 0.00
9:53 pm 21:53 Clear 31 -0.6 16 -8.9 54 54 SW 8 13 30.14 1021 10 16 0.00 0.00
10:53 pm 22:53 Clear 29 -1.7 16 -8.9 58 58 WSW 7 11 30.12 1020 10 16 0.00 0.00
11:53 pm 23:53 Clear 30 -1.1 16 -8.9 56 56 W 7 11 30.12 1020 10 16 0.00 0.00

Powered by AerisWeather